User: anonymous   Login
Location: Caltech
(34.1382°N, 118.1253°W)
Time: 15:31:52
(UTC-08:00)
Language:

Saudisat 1A - Orbit

View from above orbital plane
View from above orbital plane
View from above satellite
View from above satellite

Ground track
Ground track

The orbit data is extracted from the following two-line orbital elements,

1 26546U 00057B   17346.81963909  .00000136  00000-0  29747-4 0  9994
2 26546  64.5535 136.1481 0011206 221.3132 138.7131 14.90651371933287
Epoch (UTC): 12 December 2017 19:40:16
Eccentricity: 0.0011206
inclination: 64.5535°
perigee height: 588 km
apogee height: 604 km
right ascension of ascending node: 136.1481°
argument of perigee: 221.3132°
revolutions per day: 14.90651371
mean anomaly at epoch: 138.7131°
orbit number at epoch: 93328

The dashed part of the orbit path shows where the satellite is in the earth's shadow,  

DLR